Time,TemperatureF,DewpointF,PressureIn,WindDirection,WindDirectionDegrees,WindSpeedMPH,WindSpeedGustMPH,Humidity,HourlyPrecipIn,Conditions,Clouds,dailyrainin,SoftwareType,DateUTC
2013-01-20 00:04:00,39.2,34.2,29.63,SSE,157,0.0,-999.0,82,-99.99,,,0.00,Acu-Link.com,2013-01-20 05:04:00,
2013-01-20 00:19:00,37.9,33.8,29.63,SW,225,0.0,-999.0,85,-99.99,,,0.00,Acu-Link.com,2013-01-20 05:19:00,
2013-01-20 00:34:00,37.4,33.6,29.62,WSW,247,0.0,-999.0,86,-99.99,,,0.00,Acu-Link.com,2013-01-20 05:34:00,
2013-01-20 00:50:00,37.0,33.5,29.59,NNW,337,0.0,-999.0,87,-99.99,,,0.00,Acu-Link.com,2013-01-20 05:50:00,
2013-01-20 01:05:00,36.5,33.3,29.59,West,270,0.0,-999.0,88,-99.99,,,0.00,Acu-Link.com,2013-01-20 06:05:00,
2013-01-20 01:20:00,36.5,34.1,29.58,South,180,0.0,-999.0,91,-99.99,,,0.00,Acu-Link.com,2013-01-20 06:20:00,
2013-01-20 01:35:00,35.6,33.5,29.58,WNW,292,0.0,-999.0,92,-99.99,,,0.00,Acu-Link.com,2013-01-20 06:35:00,
2013-01-20 01:50:00,33.8,32.0,29.57,North,0,0.0,-999.0,93,-99.99,,,0.00,Acu-Link.com,2013-01-20 06:50:00,
2013-01-20 02:05:00,32.7,31.2,29.57,NNE,22,0.0,-999.0,94,-99.99,,,0.00,Acu-Link.com,2013-01-20 07:05:00,
2013-01-20 02:20:00,31.8,31.3,29.56,NNE,22,0.0,-999.0,98,-99.99,,,0.00,Acu-Link.com,2013-01-20 07:20:00,
2013-01-20 02:35:00,31.1,30.6,29.56,South,180,0.0,-999.0,98,-99.99,,,0.00,Acu-Link.com,2013-01-20 07:35:00,
2013-01-20 02:50:00,30.4,29.9,29.57,South,180,0.0,-999.0,98,-99.99,,,0.00,Acu-Link.com,2013-01-20 07:50:00,
2013-01-20 03:06:00,29.7,29.2,29.55,South,180,0.0,-999.0,98,-99.99,,,0.00,Acu-Link.com,2013-01-20 08:06:00,
2013-01-20 03:21:00,28.9,28.4,29.54,South,180,0.0,-999.0,98,-99.99,,,0.00,Acu-Link.com,2013-01-20 08:21:00,
2013-01-20 03:36:00,28.4,27.9,29.54,South,180,0.0,-999.0,98,-99.99,,,0.00,Acu-Link.com,2013-01-20 08:36:00,
2013-01-20 03:51:00,27.9,27.4,29.53,South,180,0.0,-999.0,98,-99.99,,,0.00,Acu-Link.com,2013-01-20 08:51:00,
2013-01-20 04:15:00,27.5,27.0,29.53,South,180,0.0,-999.0,98,-99.99,,,0.00,Acu-Link.com,2013-01-20 09:15:00,
2013-01-20 04:30:00,27.3,26.8,29.50,South,180,0.0,-999.0,98,-99.99,,,0.00,Acu-Link.com,2013-01-20 09:30:00,
2013-01-20 04:45:00,27.0,26.5,29.50,South,180,0.0,-999.0,98,-99.99,,,0.00,Acu-Link.com,2013-01-20 09:45:00,
2013-01-20 05:00:00,26.6,26.1,29.49,South,180,0.0,-999.0,98,-99.99,,,0.00,Acu-Link.com,2013-01-20 10:00:00,
2013-01-20 05:15:00,26.6,26.1,29.48,South,180,0.0,-999.0,98,-99.99,,,0.00,Acu-Link.com,2013-01-20 10:15:00,
2013-01-20 05:30:00,26.4,25.9,29.47,South,180,0.0,-999.0,98,-99.99,,,0.00,Acu-Link.com,2013-01-20 10:30:00,
2013-01-20 05:45:00,26.6,26.1,29.47,ENE,67,0.0,-999.0,98,-99.99,,,0.00,Acu-Link.com,2013-01-20 10:45:00,
2013-01-20 06:00:00,27.3,26.8,29.46,South,180,0.0,-999.0,98,-99.99,,,0.00,Acu-Link.com,2013-01-20 11:00:00,
2013-01-20 06:16:00,27.3,26.8,29.47,WSW,247,0.0,-999.0,98,-99.99,,,0.00,Acu-Link.com,2013-01-20 11:16:00,
2013-01-20 06:46:00,30.6,30.1,29.46,NW,315,0.0,-999.0,98,-99.99,,,0.00,Acu-Link.com,2013-01-20 11:46:00,
2013-01-20 07:16:00,29.8,29.3,29.46,WSW,247,0.0,-999.0,98,-99.99,,,0.00,Acu-Link.com,2013-01-20 12:16:00,
2013-01-20 07:31:00,29.5,29.0,29.46,ENE,67,0.0,-999.0,98,-99.99,,,0.00,Acu-Link.com,2013-01-20 12:31:00,
2013-01-20 07:46:00,32.2,31.7,29.45,West,270,2.2,-999.0,98,-99.99,,,0.00,Acu-Link.com,2013-01-20 12:46:00,
2013-01-20 08:01:00,35.4,34.9,29.45,South,180,1.1,-999.0,98,-99.99,,,0.00,Acu-Link.com,2013-01-20 13:01:00,
2013-01-20 08:16:00,37.9,36.6,29.45,ESE,112,3.2,-999.0,95,-99.99,,,0.00,Acu-Link.com,2013-01-20 13:16:00,
2013-01-20 08:31:00,41.5,36.7,29.45,West,270,1.1,-999.0,83,-99.99,,,0.00,Acu-Link.com,2013-01-20 13:31:00,
2013-01-20 08:47:00,43.7,37.6,29.46,ESE,112,2.7,-999.0,79,-99.99,,,0.00,Acu-Link.com,2013-01-20 13:47:00,
2013-01-20 09:02:00,44.6,37.8,29.47,SE,135,3.2,-999.0,77,-99.99,,,0.00,Acu-Link.com,2013-01-20 14:02:00,
2013-01-20 09:17:00,45.3,37.5,29.47,South,180,4.7,-999.0,74,-99.99,,,0.00,Acu-Link.com,2013-01-20 14:17:00,
2013-01-20 09:32:00,46.2,38.0,29.47,WNW,292,2.7,-999.0,73,-99.99,,,0.00,Acu-Link.com,2013-01-20 14:32:00,
2013-01-20 09:47:00,47.3,38.0,29.46,WSW,247,3.2,-999.0,70,-99.99,,,0.00,Acu-Link.com,2013-01-20 14:47:00,
2013-01-20 10:02:00,48.7,39.0,29.46,SSW,202,2.7,-999.0,69,-99.99,,,0.00,Acu-Link.com,2013-01-20 15:02:00,
2013-01-20 10:17:00,50.4,39.1,29.45,SSW,202,4.2,-999.0,65,-99.99,,,0.00,Acu-Link.com,2013-01-20 15:17:00,
2013-01-20 10:32:00,52.2,40.4,29.43,SSW,202,2.7,-999.0,64,-99.99,,,0.00,Acu-Link.com,2013-01-20 15:32:00,
2013-01-20 10:47:00,53.6,39.6,29.43,ENE,67,8.9,-999.0,59,-99.99,,,0.00,Acu-Link.com,2013-01-20 15:47:00,
2013-01-20 11:03:00,53.2,39.2,29.44,SW,225,6.8,-999.0,59,-99.99,,,0.00,Acu-Link.com,2013-01-20 16:03:00,
2013-01-20 11:18:00,53.6,39.6,29.44,SW,225,3.7,-999.0,59,-99.99,,,0.00,Acu-Link.com,2013-01-20 16:18:00,
2013-01-20 11:33:00,53.6,39.6,29.44,SSE,157,3.7,-999.0,59,-99.99,,,0.00,Acu-Link.com,2013-01-20 16:33:00,
2013-01-20 11:48:00,53.1,39.6,29.42,SSW,202,3.2,-999.0,60,-99.99,,,0.00,Acu-Link.com,2013-01-20 16:48:00,
2013-01-20 12:03:00,55.0,40.5,29.41,North,0,6.8,-999.0,58,-99.99,,,0.00,Acu-Link.com,2013-01-20 17:03:00,
2013-01-20 12:18:00,55.6,41.1,29.41,West,270,2.7,-999.0,58,-99.99,,,0.00,Acu-Link.com,2013-01-20 17:18:00,
2013-01-20 12:33:00,55.4,40.0,29.41,East,90,3.7,-999.0,56,-99.99,,,0.00,Acu-Link.com,2013-01-20 17:33:00,
2013-01-20 12:48:00,55.0,36.2,29.42,SW,225,10.4,-999.0,49,-99.99,,,0.00,Acu-Link.com,2013-01-20 17:48:00,
2013-01-20 13:03:00,55.2,34.8,29.41,SE,135,3.2,-999.0,46,-99.99,,,0.00,Acu-Link.com,2013-01-20 18:03:00,
2013-01-20 13:19:00,53.6,32.2,29.41,WNW,292,4.7,-999.0,44,-99.99,,,0.00,Acu-Link.com,2013-01-20 18:19:00,
2013-01-20 13:34:00,52.2,31.5,29.42,ESE,112,4.7,-999.0,45,-99.99,,,0.00,Acu-Link.com,2013-01-20 18:34:00,
2013-01-20 13:49:00,53.6,31.1,29.42,WSW,247,3.7,-999.0,42,-99.99,,,0.00,Acu-Link.com,2013-01-20 18:49:00,
2013-01-20 14:04:00,54.0,31.4,29.42,South,180,2.2,-999.0,42,-99.99,,,0.00,Acu-Link.com,2013-01-20 19:04:00,
2013-01-20 14:19:00,53.2,26.3,29.44,ENE,67,3.2,-999.0,35,-99.99,,,0.00,Acu-Link.com,2013-01-20 19:19:00,
2013-01-20 14:34:00,52.5,27.0,29.44,SE,135,5.3,-999.0,37,-99.99,,,0.00,Acu-Link.com,2013-01-20 19:34:00,
2013-01-20 14:49:00,52.3,28.1,29.45,SW,225,4.7,-999.0,39,-99.99,,,0.00,Acu-Link.com,2013-01-20 19:49:00,
2013-01-20 15:04:00,52.2,29.8,29.47,NNE,22,2.7,-999.0,42,-99.99,,,0.00,Acu-Link.com,2013-01-20 20:04:00,
2013-01-20 15:19:00,51.8,30.6,29.48,North,0,3.7,-999.0,44,-99.99,,,0.00,Acu-Link.com,2013-01-20 20:19:00,
2013-01-20 15:35:00,50.5,30.0,29.49,West,270,7.3,-999.0,45,-99.99,,,0.00,Acu-Link.com,2013-01-20 20:35:00,
2013-01-20 15:50:00,49.8,28.2,29.50,NNW,337,4.2,-999.0,43,-99.99,,,0.00,Acu-Link.com,2013-01-20 20:50:00,
2013-01-20 16:05:00,48.7,26.1,29.51,WNW,292,4.2,-999.0,41,-99.99,,,0.00,Acu-Link.com,2013-01-20 21:05:00,
2013-01-20 16:20:00,47.7,25.2,29.52,NNW,337,3.2,-999.0,41,-99.99,,,0.00,Acu-Link.com,2013-01-20 21:20:00,
2013-01-20 16:35:00,47.1,24.6,29.52,ENE,67,3.7,-999.0,41,-99.99,,,0.00,Acu-Link.com,2013-01-20 21:35:00,
2013-01-20 16:50:00,46.2,25.0,29.54,SSW,202,2.7,-999.0,43,-99.99,,,0.00,Acu-Link.com,2013-01-20 21:50:00,
2013-01-20 17:05:00,45.3,24.1,29.55,SSW,202,3.7,-999.0,43,-99.99,,,0.00,Acu-Link.com,2013-01-20 22:05:00,
2013-01-20 17:20:00,44.2,23.1,29.57,West,270,2.2,-999.0,43,-99.99,,,0.00,Acu-Link.com,2013-01-20 22:20:00,
2013-01-20 17:35:00,43.5,22.5,29.58,North,0,3.7,-999.0,43,-99.99,,,0.00,Acu-Link.com,2013-01-20 22:35:00,
2013-01-20 17:51:00,42.6,22.8,29.58,SSW,202,3.2,-999.0,45,-99.99,,,0.00,Acu-Link.com,2013-01-20 22:51:00,
2013-01-20 18:06:00,41.9,23.2,29.59,ESE,112,1.7,-999.0,47,-99.99,,,0.00,Acu-Link.com,2013-01-20 23:06:00,
2013-01-20 18:21:00,41.2,23.0,29.61,ESE,112,5.3,-999.0,48,-99.99,,,0.00,Acu-Link.com,2013-01-20 23:21:00,
2013-01-20 18:36:00,40.6,22.5,29.62,ESE,112,3.7,-999.0,48,-99.99,,,0.00,Acu-Link.com,2013-01-20 23:36:00,
2013-01-20 19:21:00,38.7,22.6,29.66,West,270,1.7,-999.0,52,-99.99,,,0.00,Acu-Link.com,2013-01-21 00:21:00,
2013-01-20 19:36:00,37.9,22.3,29.66,SSW,202,2.2,-999.0,53,-99.99,,,0.00,Acu-Link.com,2013-01-21 00:36:00,
2013-01-20 19:52:00,37.4,21.4,29.68,WSW,247,3.7,-999.0,52,-99.99,,,0.00,Acu-Link.com,2013-01-21 00:52:00,
2013-01-20 20:07:00,36.5,20.6,29.68,NNE,22,2.7,-999.0,52,-99.99,,,0.00,Acu-Link.com,2013-01-21 01:07:00,
2013-01-20 20:37:00,35.4,20.4,29.69,South,180,2.2,-999.0,54,-99.99,,,0.00,Acu-Link.com,2013-01-21 01:37:00,
2013-01-20 20:52:00,35.1,20.2,29.69,North,0,3.7,-999.0,54,-99.99,,,0.00,Acu-Link.com,2013-01-21 01:52:00,
2013-01-20 21:07:00,34.5,20.0,29.70,NNE,22,1.7,-999.0,55,-99.99,,,0.00,Acu-Link.com,2013-01-21 02:07:00,
2013-01-20 21:22:00,33.8,19.8,29.71,SE,135,0.0,-999.0,56,-99.99,,,0.00,Acu-Link.com,2013-01-21 02:22:00,
2013-01-20 21:37:00,33.3,19.3,29.71,NW,315,3.2,-999.0,56,-99.99,,,0.00,Acu-Link.com,2013-01-21 02:37:00,
2013-01-20 21:52:00,32.7,19.2,29.71,South,180,2.7,-999.0,57,-99.99,,,0.00,Acu-Link.com,2013-01-21 02:52:00,
2013-01-20 22:07:00,32.0,18.9,29.73,WNW,292,0.0,-999.0,58,-99.99,,,0.00,Acu-Link.com,2013-01-21 03:07:00,
2013-01-20 22:23:00,31.6,19.7,29.73,SW,225,2.2,-999.0,61,-99.99,,,0.00,Acu-Link.com,2013-01-21 03:23:00,
2013-01-20 22:38:00,30.9,19.1,29.73,South,180,2.2,-999.0,61,-99.99,,,0.00,Acu-Link.com,2013-01-21 03:38:00,
2013-01-20 23:08:00,29.8,18.8,29.75,WSW,247,0.0,-999.0,63,-99.99,,,0.00,Acu-Link.com,2013-01-21 04:08:00,
2013-01-20 23:23:00,29.5,18.5,29.76,SSE,157,2.7,-999.0,63,-99.99,,,0.00,Acu-Link.com,2013-01-21 04:23:00,
2013-01-20 23:38:00,29.3,18.3,29.76,East,90,2.7,-999.0,63,-99.99,,,0.00,Acu-Link.com,2013-01-21 04:38:00,
2013-01-20 23:53:00,28.8,17.8,29.76,SSW,202,2.7,-999.0,63,-99.99,,,0.00,Acu-Link.com,2013-01-21 04:53:00,